F4AMY-13 Weather Reports


time (UTC)temp
C
wind
direction
speed
KPH
gust
KPH
rain 1hr
cm
rain 24hr
cm
rain mn
cm
humidity
%
barometer
mb
20260507120757 23 162 6.4 11.3 0.00 0.00 9.91 44 1011.0
20260507120257 23 196 0.0 11.3 0.00 0.00 9.91 42 1011.0
20260507115758 23 249 0.0 11.3 0.00 0.00 9.91 53 1010.8
20260507115257 23 249 0.0 11.3 0.00 0.00 9.91 53 1010.8
20260507114757 23 212 0.0 0.0 0.00 0.00 9.91 41 1011.0
20260507114257 23 231 0.0 0.0 0.00 0.00 9.91 45 1011.0
20260507113758 23 161 0.0 11.3 0.00 0.00 9.91 42 1011.0
20260507113258 23 270 11.3 24.1 0.00 0.00 9.91 45 1010.8
20260507112757 22 243 0.0 0.0 0.00 0.00 9.91 43 1010.8
20260507112257 22 302 4.8 11.3 0.00 0.00 9.91 41 1010.7
20260507111757 22 257 0.0 0.0 0.00 0.00 9.91 43 1011.0
20260507111257 22 191 0.0 11.3 0.00 0.00 9.91 44 1011.1
20260507110757 22 235 4.8 11.3 0.00 0.00 9.91 44 1010.8
20260507110257 22 251 0.0 11.3 0.00 0.00 9.91 43 1010.9
20260507105757 21 211 6.4 24.1 0.00 0.00 9.91 45 1011.1
20260507105257 21 259 0.0 0.0 0.00 0.00 9.91 45 1011.1
20260507104756 21 280 0.0 0.0 0.00 0.00 9.91 46 1011.2
20260507104256 21 283 6.4 24.1 0.00 0.00 9.91 47 1011.2
20260507103756 21 245 0.0 0.0 0.00 0.00 9.91 50 1011.4
20260507103256 20 267 0.0 0.0 0.00 0.00 9.91 52 1011.3
20260507102756 20 287 0.0 0.0 0.00 0.00 9.91 52 1011.4
20260507102256 20 337 0.0 11.3 0.00 0.00 9.91 49 1011.5
20260507101756 20 327 0.0 0.0 0.00 0.00 9.91 51 1011.4
20260507101256 20 226 0.0 0.0 0.00 0.00 9.91 57 1011.3
20260507100756 20 280 1.6 11.3 0.00 0.00 9.91 52 1011.3
20260507100256 19 282 0.0 11.3 0.00 0.00 9.91 50 1011.6
20260507095756 19 298 0.0 0.0 0.00 0.00 9.91 55 1011.6
20260507095256 19 243 0.0 0.0 0.00 0.00 9.91 52 1011.7
20260507094756 18 261 0.0 0.0 0.00 0.00 9.91 59 1011.6
20260507094256 18 338 0.0 0.0 0.00 0.00 9.91 57 1011.5
20260507093756 18 224 1.6 11.3 0.00 0.00 9.91 53 1011.7
20260507093256 18 217 0.0 0.0 0.00 0.00 9.91 47 1011.8
20260507092756 18 259 11.3 24.1 0.00 0.00 9.91 50 1011.8
20260507092256 18 197 0.0 0.0 0.00 0.00 9.91 57 1011.6
20260507091755 17 292 0.0 0.0 0.00 0.00 9.91 57 1011.8
20260507091255 17 322 0.0 0.0 0.00 0.00 9.91 59 1011.5
20260507090755 17 242 0.0 0.0 0.00 0.00 9.91 57 1011.7
20260507090255 17 353 0.0 0.0 0.00 0.00 9.91 61 1011.6
20260507085755 17 246 0.0 0.0 0.00 0.00 9.91 61 1011.6
20260507085255 17 338 0.0 0.0 0.00 0.00 9.91 61 1011.5
20260507084755 17 210 0.0 0.0 0.00 0.00 9.91 61 1011.6
20260507084255 17 232 0.0 11.3 0.00 0.00 9.91 62 1011.6
20260507083755 16 211 0.0 0.0 0.00 0.00 9.91 63 1011.6
20260507083255 16 259 0.0 11.3 0.00 0.00 9.91 65 1011.7
20260507082755 16 207 3.2 11.3 0.00 0.00 9.91 65 1011.9
20260507082255 16 225 0.0 0.0 0.00 0.00 9.91 66 1011.6
20260507081755 16 294 0.0 0.0 0.00 0.00 9.91 69 1011.4
20260507081255 15 328 0.0 0.0 0.00 0.00 9.91 71 1011.6
20260507080755 15 313 0.0 0.0 0.00 0.00 9.91 73 1011.4
20260507080255 15 250 0.0 11.3 0.00 0.00 9.91 72 1011.7
20260507075754 15 224 0.0 0.0 0.00 0.00 9.91 72 1011.5
20260507075254 15 244 0.0 0.0 0.00 0.00 9.91 74 1011.4
20260507074754 14 245 0.0 0.0 0.00 0.00 9.91 74 1011.6
20260507074254 13 268 0.0 0.0 0.00 0.00 9.91 76 1011.7
20260507073754 13 263 0.0 0.0 0.00 0.00 9.91 78 1011.6
20260507073254 13 254 0.0 0.0 0.00 0.00 9.91 79 1011.7
20260507072754 12 254 0.0 0.0 0.00 0.00 9.91 81 1011.5
20260507072254 12 260 0.0 0.0 0.00 0.00 9.91 87 1011.4
20260507071754 12 283 0.0 0.0 0.00 0.00 9.91 92 1011.6
20260507071254 12 265 0.0 0.0 0.00 0.00 9.91 93 1011.5
20260507070754 12 261 0.0 0.0 0.00 0.00 9.91 93 1011.5
20260507070254 12 266 0.0 0.0 0.00 0.00 9.91 94 1011.5
20260507065754 11 275 0.0 0.0 0.00 0.00 9.91 94 1011.4
20260507065254 11 261 0.0 0.0 0.00 0.00 9.91 94 1011.3
20260507064754 11 263 0.0 0.0 0.00 0.00 9.91 94 1011.6
20260507064254 11 256 0.0 0.0 0.00 0.00 9.91 94 1011.5
20260507063754 11 261 0.0 0.0 0.00 0.00 9.91 94 1011.2
20260507063253 11 261 0.0 0.0 0.00 0.00 9.91 94 1011.5
20260507062753 10 262 0.0 0.0 0.00 0.00 9.91 94 1011.2
20260507062253 10 263 0.0 0.0 0.00 0.00 9.91 94 1011.5
20260507061753 10 266 0.0 0.0 0.00 0.00 9.91 94 1011.5
20260507061253 10 267 0.0 0.0 0.00 0.00 9.91 94 1011.5
20260507060753 10 268 0.0 0.0 0.00 0.00 9.91 94 1011.4
20260507060253 9 276 0.0 0.0 0.00 0.00 9.91 94 1011.4
20260507055753 9 268 0.0 0.0 0.00 0.00 9.91 94 1011.4
20260507055253 9 268 0.0 0.0 0.00 0.00 9.91 94 1011.4
20260507054753 8 267 0.0 0.0 0.00 0.00 9.91 94 1011.4
20260507054253 8 266 0.0 0.0 0.00 0.00 9.91 94 1011.3
20260507053753 8 265 0.0 0.0 0.00 0.00 9.91 94 1011.3
20260507053253 8 269 0.0 0.0 0.00 0.00 9.91 94 1011.2
20260507052753 8 268 0.0 0.0 0.00 0.00 9.91 94 1011.2
20260507052253 8 267 0.0 0.0 0.00 0.00 9.91 94 1011.3
20260507051753 8 268 0.0 0.0 0.00 0.00 9.91 94 1011.3
20260507051253 8 269 0.0 0.0 0.00 0.00 9.91 94 1011.2
20260507050752 8 265 0.0 0.0 0.00 0.00 9.91 94 1011.1
20260507050252 8 265 0.0 0.0 0.00 0.00 9.91 94 1011.1
20260507045752 8 264 0.0 0.0 0.00 0.00 9.91 94 1011.0
20260507045252 8 268 0.0 0.0 0.00 0.00 9.91 94 1010.9
20260507044752 8 290 0.0 0.0 0.00 0.00 9.91 94 1011.1
20260507044252 8 258 0.0 0.0 0.00 0.00 9.91 93 1011.1
20260507043752 8 258 0.0 0.0 0.00 0.00 9.91 93 1011.1
20260507043252 8 258 0.0 0.0 0.00 0.00 9.91 93 1011.0
20260507042752 8 258 0.0 0.0 0.00 0.00 9.91 93 1011.2
20260507042252 8 263 0.0 0.0 0.00 0.00 9.91 93 1010.9
20260507041752 8 263 0.0 0.0 0.00 0.00 9.91 93 1010.9
20260507041252 8 260 0.0 0.0 0.00 0.00 9.91 93 1010.7
20260507040752 8 261 0.0 0.0 0.00 0.00 9.91 93 1011.0
20260507040252 8 264 0.0 0.0 0.00 0.00 9.91 93 1010.8
20260507035752 8 264 0.0 0.0 0.00 0.00 9.91 93 1010.9
20260507035252 9 267 0.0 0.0 0.00 0.00 9.91 93 1011.1
20260507034752 9 260 0.0 0.0 0.00 0.00 9.91 93 1010.7
20260507034252 9 260 0.0 0.0 0.00 0.00 9.91 93 1010.7
20260507033751 9 259 0.0 0.0 0.00 0.00 9.91 93 1010.9
20260507033251 9 254 0.0 0.0 0.00 0.00 9.91 93 1010.9
20260507032751 9 254 0.0 0.0 0.00 0.00 9.91 93 1010.8
20260507032251 9 264 0.0 0.0 0.00 0.00 9.91 93 1010.7
20260507031751 9 252 0.0 0.0 0.00 0.00 9.91 93 1010.8
20260507031251 9 262 0.0 0.0 0.00 0.00 9.91 93 1010.9
20260507030751 9 262 0.0 0.0 0.00 0.00 9.91 93 1010.8
20260507030251 9 264 0.0 0.0 0.00 0.00 9.91 93 1010.9
20260507025751 9 257 0.0 0.0 0.00 0.00 9.91 93 1010.9
20260507025251 9 264 0.0 0.0 0.00 0.00 9.91 93 1010.7
20260507024751 9 324 0.0 0.0 0.00 0.00 9.91 93 1010.8
20260507024251 10 263 0.0 0.0 0.00 0.00 9.91 93 1010.6
20260507023751 10 260 0.0 0.0 0.00 0.00 9.91 93 1010.7
20260507023251 10 259 0.0 0.0 0.00 0.00 9.91 92 1010.6
20260507022751 10 261 0.0 0.0 0.00 0.00 9.91 92 1010.7
20260507022250 10 259 0.0 0.0 0.00 0.00 9.91 92 1010.7
20260507021750 10 259 0.0 0.0 0.00 0.00 9.91 92 1010.8
20260507021250 10 259 0.0 0.0 0.00 0.00 9.91 92 1010.7
20260507020750 10 259 0.0 0.0 0.00 0.00 9.91 92 1010.9
20260507020250 10 259 0.0 0.0 0.00 0.00 9.91 92 1010.8
20260507015750 10 259 0.0 0.0 0.00 0.00 9.91 92 1010.8
20260507015250 10 259 0.0 0.0 0.00 0.00 9.91 92 1010.8
20260507014750 11 259 0.0 0.0 0.00 0.00 9.91 92 1010.7
20260507014250 11 261 0.0 0.0 0.00 0.00 9.91 92 1011.0
20260507013750 11 261 0.0 0.0 0.00 0.00 9.91 92 1011.1
20260507013250 11 258 0.0 0.0 0.00 0.00 9.91 92 1011.0
20260507012750 11 257 0.0 0.0 0.00 0.00 9.91 92 1010.9
20260507012250 11 261 0.0 0.0 0.00 0.00 9.91 92 1010.9
20260507011750 11 261 0.0 0.0 0.00 0.00 9.91 92 1010.8
20260507011250 11 261 0.0 0.0 0.00 0.00 9.91 92 1011.0
20260507010750 11 261 0.0 0.0 0.00 0.00 9.91 92 1010.9
20260507010250 11 253 0.0 0.0 0.00 0.00 9.91 92 1011.0
20260507005749 11 263 0.0 0.0 0.00 0.00 9.91 91 1010.9
20260507005249 11 263 0.0 0.0 0.00 0.00 9.91 91 1011.0
20260507004749 11 264 0.0 0.0 0.00 0.00 9.91 91 1011.3
20260507004249 11 259 0.0 0.0 0.00 0.00 9.91 91 1011.0
20260507003749 11 259 0.0 0.0 0.00 0.00 9.91 91 1010.9
20260507003249 11 259 0.0 0.0 0.00 0.00 9.91 91 1011.2
20260507002749 11 259 0.0 0.0 0.00 0.00 9.91 91 1011.3
20260507002249 11 259 0.0 0.0 0.00 0.00 9.91 90 1011.3
20260507001749 11 259 0.0 0.0 0.00 0.00 9.91 90 1011.1
20260507001249 11 259 0.0 0.0 0.00 0.00 9.91 90 1011.2
20260507000749 11 259 0.0 0.0 0.00 0.00 9.91 90 1011.1
20260507000249 11 259 0.0 0.0 0.00 0.00 9.91 90 1011.2
20260506235749 11 259 0.0 0.0 0.00 0.00 9.91 90 1011.3
20260506235249 12 259 0.0 0.0 0.00 0.00 9.91 89 1011.2
20260506234749 12 259 0.0 0.0 0.00 0.00 9.91 89 1011.2
20260506234249 12 259 0.0 0.0 0.00 0.00 9.91 90 1011.3
20260506233749 12 259 0.0 0.0 0.00 0.00 9.91 89 1011.3
20260506233248 12 263 0.0 0.0 0.00 0.00 9.91 89 1011.4
20260506232748 12 261 0.0 0.0 0.00 0.00 9.91 89 1011.3
20260506232248 12 266 0.0 0.0 0.00 0.00 9.91 89 1011.5
20260506231748 12 256 0.0 0.0 0.00 0.00 9.91 89 1011.4
20260506231248 12 248 0.0 0.0 0.00 0.00 9.91 89 1011.5
20260506230748 12 252 0.0 0.0 0.00 0.00 9.91 89 1011.5
20260506230248 12 255 0.0 0.0 0.00 0.00 9.91 89 1011.4
20260506225748 12 261 0.0 0.0 0.00 0.00 9.91 89 1011.7
20260506225248 12 257 0.0 0.0 0.00 0.00 9.91 89 1011.4
20260506224748 12 262 0.0 0.0 0.00 0.00 9.91 89 1011.6
20260506224248 12 274 0.0 0.0 0.00 0.00 9.91 89 1011.7
20260506223748 12 242 0.0 0.0 0.00 0.00 9.91 88 1011.5
20260506223248 12 263 0.0 0.0 0.00 0.00 9.91 89 1011.3
20260506222748 12 266 0.0 0.0 0.00 0.00 9.91 89 1011.6
20260506222248 12 258 0.0 0.0 0.00 0.00 9.91 88 1011.5
20260506221747 12 265 0.0 0.0 0.00 0.00 9.91 88 1011.4
20260506221247 12 248 0.0 0.0 0.00 0.00 9.91 88 1011.4
20260506220747 12 271 0.0 0.0 0.00 0.00 9.91 88 1011.6
20260506220247 12 246 0.0 0.0 0.00 0.00 9.91 87 1011.5
20260506215747 12 252 0.0 0.0 0.00 3.73 9.91 87 1011.7
20260506215247 12 256 0.0 0.0 0.00 3.73 9.91 87 1011.4
20260506214747 12 254 0.0 0.0 0.00 3.73 9.91 86 1011.5
20260506214247 12 261 0.0 0.0 0.00 3.73 9.91 86 1011.6
20260506213747 12 259 0.0 0.0 0.00 3.73 9.91 85 1011.4
20260506213247 12 249 0.0 0.0 0.00 3.73 9.91 85 1011.4
20260506212747 12 273 0.0 0.0 0.00 3.73 9.91 84 1011.3
20260506212247 12 251 0.0 0.0 0.00 3.73 9.91 84 1011.6
20260506211747 12 222 0.0 0.0 0.00 3.73 9.91 85 1011.5
20260506211247 12 255 0.0 0.0 0.00 3.73 9.91 84 1011.4
20260506210747 12 281 0.0 0.0 0.00 3.73 9.91 83 1011.5
20260506210247 12 243 0.0 0.0 0.00 3.73 9.91 83 1011.4
20260506205747 12 265 0.0 0.0 0.00 3.73 9.91 82 1011.3
20260506205246 12 333 0.0 0.0 0.00 3.73 9.91 82 1011.6
20260506204746 12 263 0.0 0.0 0.00 3.73 9.91 81 1011.2
20260506204246 12 256 0.0 0.0 0.00 3.73 9.91 81 1011.1
20260506203746 12 249 0.0 0.0 0.00 3.73 9.91 81 1011.1
20260506203246 12 279 0.0 0.0 0.00 3.73 9.91 81 1011.2
20260506202746 12 264 0.0 0.0 0.00 3.73 9.91 81 1011.1
20260506202246 13 259 0.0 0.0 0.00 3.73 9.91 81 1011.2
20260506201746 13 253 0.0 0.0 0.00 3.73 9.91 81 1010.8
20260506201246 13 272 0.0 0.0 0.00 3.73 9.91 81 1010.9
20260506200746 13 270 0.0 0.0 0.00 3.73 9.91 81 1010.7
20260506200246 13 244 0.0 0.0 0.00 3.73 9.91 81 1010.9
20260506195746 13 240 0.0 0.0 0.00 3.73 9.91 80 1010.9
20260506195246 13 275 0.0 0.0 0.00 3.73 9.91 80 1010.5
20260506194746 13 238 0.0 0.0 0.00 3.73 9.91 81 1010.7
20260506194246 13 295 0.0 0.0 0.00 3.73 9.91 81 1010.5
20260506193746 13 255 0.0 0.0 0.00 3.73 9.91 81 1010.4
20260506193245 13 246 0.0 0.0 0.00 3.73 9.91 81 1010.3
20260506192745 13 259 0.0 0.0 0.00 3.73 9.91 81 1010.4
20260506192245 13 233 0.0 0.0 0.00 3.73 9.91 81 1010.0
20260506191745 13 256 0.0 0.0 0.00 3.73 9.91 81 1009.9
20260506191245 13 230 0.0 0.0 0.00 3.73 9.91 81 1010.0
20260506190745 13 253 0.0 0.0 0.00 3.73 9.91 80 1009.7
20260506190245 13 260 0.0 0.0 0.00 3.73 9.91 79 1009.7
20260506185745 14 238 0.0 0.0 0.00 3.73 9.91 79 1009.7
20260506185245 14 279 0.0 0.0 0.00 3.73 9.91 78 1009.7
20260506184745 14 253 0.0 0.0 0.00 3.73 9.91 78 1009.5
20260506184245 15 242 0.0 0.0 0.00 3.73 9.91 77 1009.6
20260506183745 15 306 0.0 0.0 0.00 3.73 9.91 76 1009.5
20260506183245 15 247 0.0 0.0 0.00 3.73 9.91 75 1009.5
20260506182745 15 236 0.0 0.0 0.00 3.73 9.91 76 1009.5
20260506182245 15 273 0.0 0.0 0.00 3.73 9.91 74 1009.2
20260506181745 15 284 0.0 0.0 0.00 3.73 9.91 75 1009.2
20260506181245 15 286 0.0 0.0 0.00 3.73 9.91 75 1009.1
20260506180744 15 286 0.0 0.0 0.00 3.73 9.91 73 1009.0
20260506180245 15 286 0.0 0.0 0.00 3.73 9.91 73 1009.0
20260506175744 16 265 0.0 0.0 0.00 3.73 9.91 73 1009.2
20260506175244 16 235 0.0 0.0 0.00 3.73 9.91 71 1008.9
20260506174744 16 273 0.0 0.0 0.00 3.73 9.91 71 1009.0
20260506174244 16 256 0.0 0.0 0.00 3.73 9.91 70 1008.7
20260506173744 16 219 0.0 0.0 0.00 3.73 9.91 68 1008.9
20260506173244 17 265 8.0 24.1 0.00 3.73 9.91 67 1008.9
20260506172744 17 211 0.0 11.3 0.00 3.73 9.91 66 1008.8
20260506172244 17 282 0.0 0.0 0.00 3.73 9.91 65 1008.6
20260506171744 18 268 0.0 0.0 0.00 3.73 9.91 65 1008.6
20260506171244 19 223 0.0 11.3 0.00 3.73 9.91 64 1008.9
20260506170744 20 211 0.0 0.0 0.00 3.73 9.91 65 1008.6
20260506170244 20 282 0.0 0.0 0.00 3.73 9.91 63 1008.6
20260506165744 21 258 0.0 0.0 0.00 3.73 9.91 61 1008.6
20260506165243 21 282 0.0 11.3 0.00 3.73 9.91 58 1008.7
20260506164743 21 246 0.0 11.3 0.00 3.73 9.91 53 1008.7
20260506164243 21 245 0.0 0.0 0.00 3.73 9.91 51 1008.6
20260506163743 21 242 1.6 11.3 0.00 3.73 9.91 53 1008.7
20260506163243 21 23 14.5 24.1 0.00 3.73 9.91 53 1008.8
20260506162743 21 234 0.0 0.0 0.00 3.73 9.91 55 1008.4
20260506162243 21 277 0.0 11.3 0.00 3.73 9.91 53 1008.3
20260506161743 20 303 4.8 11.3 0.00 3.73 9.91 53 1008.7
20260506161243 20 270 0.0 11.3 0.00 3.73 9.91 55 1008.5
20260506160743 20 277 0.0 11.3 0.00 3.73 9.91 58 1008.6
20260506160243 20 225 0.0 0.0 0.00 3.73 9.91 57 1008.8
20260506155743 19 274 0.0 11.3 0.00 3.73 9.91 59 1008.8
20260506155243 19 282 3.2 11.3 0.00 3.73 9.91 60 1008.6
20260506154743 19 47 0.0 0.0 0.00 3.73 9.91 60 1008.6
20260506154243 18 222 0.0 0.0 0.00 3.73 9.91 59 1008.6
20260506153743 18 44 0.0 0.0 0.00 3.73 9.91 57 1008.7
20260506153242 19 221 0.0 11.3 0.00 3.73 9.91 62 1008.5
20260506152742 19 227 0.0 0.0 0.00 3.73 9.91 62 1008.6
20260506152242 20 359 0.0 0.0 0.00 3.73 9.91 63 1008.3
20260506151742 20 297 1.6 11.3 0.00 3.73 9.91 62 1008.7
20260506151242 21 278 0.0 0.0 0.00 3.73 9.91 59 1008.5
20260506150742 22 288 3.2 11.3 0.00 3.73 9.91 56 1008.6
20260506150242 22 300 0.0 11.3 0.00 3.73 9.91 55 1008.6
20260506145742 22 254 0.0 11.3 0.00 3.73 9.91 53 1008.6
20260506145242 23 19 0.0 0.0 0.00 3.73 9.91 54 1008.7
20260506144742 23 153 0.0 11.3 0.00 3.73 9.91 48 1008.8
20260506144242 23 201 4.8 11.3 0.00 3.73 9.91 51 1008.7
20260506143742 23 17 1.6 11.3 0.00 3.73 9.91 48 1008.9
20260506143242 22 56 0.0 11.3 0.00 3.73 9.91 49 1008.9
20260506142742 22 263 9.7 24.1 0.00 3.73 9.91 50 1008.9
20260506142242 22 320 3.2 11.3 0.00 3.73 9.91 49 1008.8
20260506141742 22 245 0.0 0.0 0.00 3.73 9.91 49 1008.7
20260506141242 22 291 3.2 11.3 0.00 3.73 9.91 46 1008.8
20260506140741 22 264 11.3 24.1 0.00 3.73 9.91 48 1008.7
20260506140241 22 304 4.8 11.3 0.00 3.73 9.91 46 1009.1
20260506135741 22 276 0.0 0.0 0.00 3.73 9.91 51 1008.6
20260506135241 22 200 0.0 11.3 0.00 3.73 9.91 52 1008.6
20260506134741 22 267 0.0 0.0 0.00 3.73 9.91 53 1008.7
20260506134241 22 279 0.0 0.0 0.00 3.73 9.91 52 1008.9
20260506133741 22 252 0.0 11.3 0.00 3.73 9.91 53 1008.8
20260506133241 22 270 0.0 0.0 0.00 3.73 9.91 56 1008.8
20260506132741 22 277 4.8 24.1 0.00 3.73 9.91 54 1009.0
20260506132241 22 50 0.0 11.3 0.00 3.73 9.91 53 1008.9
20260506131741 21 202 0.0 0.0 0.00 3.73 9.91 52 1009.1
20260506131241 21 262 0.0 11.3 0.00 3.73 9.91 57 1008.8
20260506130741 21 251 0.0 0.0 0.00 3.73 9.91 59 1009.0
20260506130241 21 277 1.6 11.3 0.00 3.73 9.91 58 1008.8
20260506125741 20 206 12.9 24.1 0.00 3.73 9.91 54 1009.0
20260506125241 20 270 0.0 0.0 0.00 3.73 9.91 59 1008.9
20260506124741 20 209 0.0 0.0 0.00 3.73 9.91 58 1008.8
20260506124241 20 160 0.0 11.3 0.00 3.73 9.91 58 1008.9
20260506123741 20 49 0.0 11.3 0.00 3.73 9.91 62 1008.8
20260506123241 20 4 4.8 11.3 0.00 3.73 9.91 59 1009.0
20260506122741 21 271 0.0 0.0 0.00 3.73 9.91 59 1008.8
20260506122240 21 271 0.0 0.0 0.00 3.73 9.91 59 1008.8
20260506121740 21 243 3.2 24.1 0.00 3.73 9.91 60 1009.2
20260506121240 21 261 0.0 0.0 0.00 3.73 9.91 58 1008.9